Regional Weather Roundup
Issued by NWS

Home | Current Version | Previous Version | Graphics & Text | Print | Product List | Glossary On
Versions: 1 2 3 4 5 6 7 8 9 10 11 12 13 14 15 16 17 18 19 20 21 22 23 24 25 26 27
000
ASUS45 KPSR 251410
RWRAZ

ARIZONA HOURLY REGIONAL WEATHER ROUNDUP
NATIONAL WEATHER SERVICE PHOENIX AZ
700 AM MST TUE JUL 25 2017

NOTE: FAIR INDICATES FEW OR NO CLOUDS BELOW 12,000 FEET WITH NO
SIGNIFICANT WEATHER AND/OR OBSTRUCTIONS TO VISIBILITY.

AZZ001>003-036-251500-
NORTHWEST ARIZONA

CITY           SKY/WX    TMP DP  RH WIND       PRES   REMARKS
KINGMAN        CLOUDY    73  66  78 SE7       30.07R
$$

AZZ004>008-015-016-018-251500-
NORTH CENTRAL ARIZONA

CITY           SKY/WX    TMP DP  RH WIND       PRES   REMARKS
GRAND CANYON   CLOUDY    61  61 100 S7        30.28R
WILLIAMS       CLOUDY    63  57  82 S7        30.29R
PRESCOTT       CLOUDY    67  67 100 SE7       30.20R
FLAGSTAFF      CLOUDY    59  59 100 SW5       30.32R
PAYSON         CLOUDY    68  64  88 CALM      30.25R
PAGE           PTSUNNY   71  64  78 W6        30.11R
$$

AZZ009>014-017-251500-
NORTHEAST ARIZONA

CITY           SKY/WX    TMP DP  RH WIND       PRES   REMARKS
WINSLOW        MOSUNNY   69  64  84 SE3       30.20R
SAINT JOHNS    PTSUNNY   65  63  93 CALM      30.25R
WINDOW ROCK    PTSUNNY   63  59  87 CALM      30.31S
SHOW LOW       PTSUNNY   61  55  82 S7        30.31R
$$

AZZ540-542>544-546-548-251500-
GREATER PHOENIX AREA

CITY           SKY/WX    TMP DP  RH WIND       PRES   REMARKS
PHOENIX        PTSUNNY   83  73  72 E7        29.92R
BUCKEYE        MOSUNNY   81  75  83 E8        29.92R
GLENDALE       PTSUNNY   84  79  84 CALM      29.94R
LUKE AFB       PTSUNNY   84  75  75 N5        29.92R
DEER VALLEY    CLOUDY    83  73  72 E3        29.95R
SCOTTSDALE     CLOUDY    84  72  67 CALM      29.97R
MESA-FALCON    MOSUNNY   81  73  78 NE6       29.96R
MESA-GATEWAY   PTSUNNY   81  73  78 SE6       29.96R
CHANDLER       SUNNY     82  73  74 NE6       29.94R
$$

AZZ539-553-251500-
SOUTHWEST MARICOPA COUNTY AND PINAL COUNTY

CITY           SKY/WX    TMP DP  RH WIND       PRES   REMARKS
CASA GRANDE    PTSUNNY   82  72  71 E7        29.97R
GILA BEND      CLOUDY    82  75  78 CALM      29.90R
$$

AZZ503-504-507>509-251500-
SOUTHEAST ARIZONA

CITY           SKY/WX    TMP DP  RH WIND       PRES   REMARKS
TUCSON         SUNNY     77  69  76 SE10      30.07R
DAVIS-MONTHAN  SUNNY     76  72  87 SE3       30.06R
RYAN FIELD     SUNNY     75  72  88 CALM      30.06R
NOGALES        SUNNY     69  67  93 CALM      30.15R
SIERRA VISTA   MOSUNNY   70  64  82 CALM      30.21R
DOUGLAS        SUNNY     68  66  93 CALM      30.16R
SAFFORD        SUNNY     73  69  87 CALM      30.10R
$$

AZZ532-251500-
SOUTHWEST ARIZONA

CITY           SKY/WX    TMP DP  RH WIND       PRES   REMARKS
YUMA           MOSUNNY   86  56  35 SE7       29.84R
$$

CAZ041-043-047-048-061-525>527-560>570-251500-
SOUTHERN CALIFORNIA

CITY           SKY/WX    TMP DP  RH WIND       PRES   REMARKS
DOWNTOWN L.A.  CLOUDY    70  64  81 W3        29.95R
L.A. AIRPORT   CLOUDY    68  64  87 W7        29.96R
SAN DIEGO      CLOUDY    71  64  78 NW5       29.97R
BURBANK        MOSUNNY   68  62  81 CALM      29.96R
ONTARIO        PTSUNNY   67  63  87 W3        29.97R
RIVERSIDE      CLOUDY    68  65  90 W6        29.97R
PALM SPRINGS   MOSUNNY   84  61  45 CALM      29.89R
EL CENTRO NAS  PTSUNNY   82  71  69 E7        29.85R
IMPERIAL       SUNNY     83  70  64 SE7       29.82R
BLYTHE         SUNNY     88  73  61 CALM      29.86R
NEEDLES        CLOUDY    88  71  57 CALM      29.90R
$$

NVZ020-UTZ003-251500-
SOUTHERN NEVADA-UTAH

CITY           SKY/WX    TMP DP  RH WIND       PRES   REMARKS
LAS VEGAS      CLOUDY    76  68  76 NE10      30.01R
SALT LAKE CITY LGT RAIN  69  62  78 SE6       30.10S
$$

NMZ009-TXZ055-251500-
NEW MEXICO-WEST TEXAS

CITY           SKY/WX    TMP DP  RH WIND       PRES   REMARKS
ALBUQUERQUE    CLOUDY    71  61  70 S10       30.24R
EL PASO        MOSUNNY   75  63  66 S5        30.16R
$$


........................KEY........................
SKY/WX - SKY CONDITION/WEATHER
TMP    - TEMPERATURE IN FAHRENHEIT
DP     - DEW POINT IN FAHRENHEIT
RH     - RELATIVE HUMIDITY IN PERCENT
WIND   - DIRECTION AND SPEED IN MILES PER HOUR (MPH)
VRB    - VARIABLE WIND DIRECTION
PRES   - MEAN SEA LEVEL PRESSURE IN INCHES OF MERCURY
         F - FALLING PRESSURE   R - RISING PRESSURE
         S - STEADY PRESSURE
VSB    - VISIBILITY IN MILES
HX     - HEAT INDEX IN FAHRENHEIT
WCI    - WIND CHILL INDEX IN FAHRENHEIT
TC     - TEMPERATURE IN CELSIUS WHICH IS ALSO KNOWN AS
         TEMPERATURE IN CENTIGRADE
AFB    - AIR FORCE BASE
         LUKE AFB IS LUKE AIR FORCE BASE
         DAVIS-MONTHAN IS DAVIS-MONTHAN AIR FORCE BASE
NAS    - NAVAL AIR STATION
         EL CENTRO NAS IS EL CENTRO NAVAL AIR STATION
N/A    - NOT AVAILABLE





USA.gov is the U.S. government's official web portal to all federal, state and local government web resources and services.